Location: Cahas Mountain Overlook
(37.0833°N, 80.1000°W)
Time: 08:31:13
(UTC-04:00)

Explorer 7 - Pass Details

Date: 17 February 2026
Orbit: 430 x 540 km, 50.2° (Epoch: 14 March)

Event Time Altitude Azimuth Distance (km) Brightness Sun altitude
Rises 19:51:38 0° 315° (NW) 2,538 10.9 -22.4°
Reaches altitude 10° 19:54:19 10° 335° (NNW) 1,683 9.6 -22.9°
Enters shadow 19:55:50 16° 358° (N) 1,362 8.9 -23.2°
Maximum altitude 19:57:00 18° 20° (NNE) 1,283 - -23.4°
Drops below altitude 10° 19:59:45 10° 65° (ENE) 1,729 - -24.0°
Sets 20:02:33 0° 85° (E) 2,638 - -24.5°
